Showing default

QIANFAN-22, 61555

Orbit data source: Space-Track

QIANFAN-22, 61555 is a Chinese payload satellite in LEO that was launched on Tue, 15 Oct 2024 UTC via a CHANG ZHENG 6A launch vehicle from the Taiyaun Space Center, China (TSC). Payload-class satellites include a variety of spacecraft equipped with specific instruments for various scientific and technological missions. These include communications satellites like Starlink; space stations such as the ISS; scientific satellites like the Hubble; Earth observation satellites from companies like Planet Labs, Umbra, and HawkEye 360; GPS; miniature CubeSats for education and research; and military/defense satellites.

Loading next visibility...
Identifier
61555, 2024-185D
Orbit
LEO
Country
Flag of CNCN / PRC
Related business
Manufacturer
GESIH/SECM
Mission
Operational Commercial Communications
Bus & Motor
QIANFAN, Unknown motor
Mass
267 kg wet, ~267 kg dry
Launch date (UTC)
2024-10-15 (1 year ago)
Launch vehicle
CHANG ZHENG 6A
Launch site
Taiyaun Space Center, China (TSC)
Object type
Payload
Rocket body
Debris
Shape & HBR
Box + 1 Pan, 5.0 m
Radar Cross Section
13.200 m², Large (>1 m²)

Expand to show TLE details & history
Last TLE update: 8 hours ago

TLE from 8 hours ago
0 QIANFAN-22
1 61555U 24185D   25292.29426213  .00000341  00000-0  28351-3 0  9991
2 61555  88.9756  85.2069 0007590 148.1239 212.0393 13.86273661 61398
Epoch: 2025-10-19T07:03Z
TLE epoch observation values (Epoch: 2025-10-19T07:03:44.248Z)
Latitude
0.00003°
Longitude
-48.74046°
Altitude
949.435 km
Speed
7.375 km/s
True Right ascension
05h 40m 49s
True Declination
0° 00' 00"
Sunlit
Object was in daylight at epoch
Visualization orbit readout
Latitude
Unknown
Longitude
Unknown
Altitude
Unknown
Speed
Unknown
Apparent Right ascension
Unknown
Apparent Declination
Unknown
Sunlit
N/A
Visualization observer readout
Local Sidereal Time
09:34:34
Azimuth
Unknown
Elevation
Unknown
Doppler factor
Unknown
Orbital elements
Apogee altitude
944.272 km
Perigee altitude
933.165 km
Semi-major axis
7,316.856 km
Eccentricity
0.00076
Inclination
88.9756°
RAAN
85.2069°
Arg. of periapsis
148.1239°
True anomaly
211.9932°
Mean anomaly
212.0393°
Eccentric anomaly
212.01624°
Mean motion
3.46782 °/min
Orbital period
103.81 mins
BSTAR
0.00028351
Loading maneuver chart data...
Computing Atmospheric mass density...
Loading historical data...
Loading historical data...
Loading historical data...
Loading historical data...
Loading historical data...
Loading historical data...
Loading historical data...

Documentation

Showing up to 5 results
|